Simultaneous Nadir Overpasses (SNOs) Predictions

Prediction of SNOs between NOAA-19 and TERRA Satellite Orbit:

Table of predicted SNOs for the next 14.0 days since TLE Epoch: 7/20/2012
Index Date (NOAA-19) Time (NOAA-19) NOAA-19 Lat,Lon Date (TERRA) Time (TERRA) TERRA Lat,Lon Distance(km) Time Diff (sec)
1 07/22/2012 09:24:54 69.10, 38.02 07/22/2012 09:25:46 69.08, 38.03 2.29 52
2 07/22/2012 10:15:55 -68.93,-154.51 07/22/2012 10:15:17 -68.90,-154.55 3.29 38
3 07/24/2012 14:09:33 69.06, -33.10 07/24/2012 14:10:03 69.05, -33.07 1.79 30
4 07/24/2012 15:00:33 -68.87, 134.41 07/24/2012 14:59:34 -68.89, 134.35 2.47 59
5 07/26/2012 18:54:12 69.05,-104.23 07/26/2012 18:54:20 69.02,-104.17 3.40 8
6 07/26/2012 19:45:07 -68.62, 63.60 07/26/2012 19:43:54 -68.69, 63.04 24.02 73
7 07/28/2012 22:47:55
